This demonstration page uses our WeatherBlox Daily Observations layout. Learn more.

Hourly Observations for February 1, 2017

Temp ( °F °C ) Dew Point ( °F °C ) Humidity (%) Winds ( mph kmh ) Pressure ( in mb ) Visibility ( mi km ) Precip ( " mm )
12:15 am 00:15 Clear 32 0 27 -3 80 80 NNE 13 20 30.21 1023 10 16.0934 0 0
12:35 am 00:35 Mostly Cloudy 32 0 27 -2.6 83 83 NNE 15 24 30.21 1023 10 16.0934 0 0
12:55 am 00:55 Cloudy 32 -0.1 28 -2.5 84 84 NNE 16 26 30.21 1023 10 16.0934 0 0
1:15 am 01:15 Cloudy 32 -0.1 28 -2.2 86 86 NE 15 24 30.21 1023 10 16.0934 0 0
1:35 am 01:35 Cloudy 32 -0.1 27 -2.6 83 83 NE 15 24 30.21 1023 10 16.0934 0 0
1:55 am 01:55 Cloudy 31 -0.5 26 -3.1 83 83 NE 15 24 30.21 1023 10 16.0934 0 0
2:15 am 02:15 Cloudy 31 -0.5 26 -3.3 82 82 NNE 15 24 30.21 1023 10 16.0934 0 0
2:35 am 02:35 Cloudy 31 -0.7 26 -3.5 82 82 NNE 15 24 30.21 1023 10 16.0934 0 0
2:55 am 02:55 Cloudy 30 -1 26 -3.4 84 84 N 17 28 30.24 1024 10 16.0934 0 0
3:15 am 03:15 Cloudy 29 -1.7 24 -4.3 83 83 NNE 17 28 30.24 1024 10 16.0934 0 0
3:35 am 03:35 Cloudy 28 -2 23 -5.2 79 79 NNE 20 31 30.24 1024 10 16.0934 0 0
3:55 am 03:55 Cloudy 29 -1.9 23 -4.9 80 80 N 15 24 30.24 1024 10 16.0934 0 0
4:15 am 04:15 Cloudy 28 -2 23 -5.2 79 79 NNE 17 28 30.24 1024 10 16.0934 0 0
4:35 am 04:35 Cloudy 28 -2 22 -5.6 77 77 NNE 16 26 30.24 1024 10 16.0934 0 0
4:55 am 04:55 Cloudy 28 -2 22 -5.5 77 77 NNE 18 30 30.24 1024 10 16.0934 0 0
5:15 am 05:15 Cloudy 28 -2 22 -5.5 77 77 NNE 13 20 30.24 1024 10 16.0934 0 0
5:35 am 05:35 Cloudy 28 -2.2 22 -5.6 78 78 N 15 24 30.24 1024 10 16.0934 0 0
5:55 am 05:55 Cloudy 28 -2.5 19 -7.1 71 71 N 16 26 30.27 1025 10 16.0934 0 0
6:15 am 06:15 Cloudy 28 -2.5 19 -7.5 69 69 N 15 24 30.3 1026 10 16.0934 0 0
6:35 am 06:35 Cloudy 28 -2.5 18 -7.6 68 68 N 15 24 30.3 1026 10 16.0934 0 0
6:55 am 06:55 Cloudy 27 -2.8 19 -7.5 70 70 N 16 26 30.3 1026 10 16.0934 0 0
7:15 am 07:15 Cloudy 27 -3 18 -7.6 71 71 NNE 16 26 30.3 1026 10 16.0934 0 0
7:35 am 07:35 Cloudy 26 -3.1 19 -7.3 73 73 N 13 20 30.3 1026 10 16.0934 0 0
7:55 am 07:55 Cloudy 26 -3.3 19 -7.4 74 74 NNE 14 22 30.33 1027 10 16.0934 0 0
8:15 am 08:15 Cloudy 26 -3.4 19 -7.5 74 74 N 14 22 30.33 1027 10 16.0934 0 0
8:35 am 08:35 Cloudy 26 -3.4 19 -7.3 75 75 NNE 14 22 30.33 1027 10 16.0934 0 0
8:55 am 08:55 Cloudy 26 -3.4 18 -7.6 73 73 N 15 24 30.33 1027 10 16.0934 0 0
9:15 am 09:15 Cloudy 26 -3.2 19 -7.5 72 72 N 12 19 30.36 1028 10 16.0934 0 0
9:35 am 09:35 Cloudy 26 -3.1 19 -7.2 74 74 NNE 12 19 30.36 1028 10 16.0934 0 0
9:55 am 09:55 Cloudy 27 -3 19 -7.3 73 73 N 14 22 30.36 1028 10 16.0934 0 0
10:15 am 10:15 Cloudy 27 -3 18 -8 69 69 N 15 24 30.36 1028 10 16.0934 0 0
10:35 am 10:35 Cloudy 27 -3 18 -8 69 69 N 15 24 30.39 1029 10 16.0934 0 0
10:55 am 10:55 Cloudy 27 -3 18 -7.6 71 71 N 13 20 30.39 1029 10 16.0934 0 0
11:15 am 11:15 Cloudy 27 -2.9 18 -7.7 70 70 N 10 17 30.39 1029 10 16.0934 0 0
11:35 am 11:35 Cloudy 27 -2.8 17 -8.4 66 66 NNE 15 24 30.39 1029 10 16.0934 0 0
11:55 am 11:55 Cloudy 27 -2.8 16 -9.1 62 62 NNE 14 22 30.42 1030 10 16.0934 0 0
12:15 pm 12:15 Cloudy 27 -2.6 17 -8.3 65 65 NNE 13 20 30.39 1029 10 16.0934 0 0
12:35 pm 12:35 Cloudy 28 -2.5 17 -8.5 64 64 N 13 20 30.42 1030 10 16.0934 0 0
12:55 pm 12:55 Cloudy 27 -2.6 17 -8.2 66 66 N 13 20 30.39 1029 10 16.0934 0 0
1:15 pm 13:15 Cloudy 27 -2.7 16 -9.1 62 62 N 15 24 30.42 1030 10 16.0934 0 0
1:35 pm 13:35 Cloudy 27 -2.7 16 -8.7 64 64 N 16 26 30.39 1029 10 16.0934 0 0
1:55 pm 13:55 Cloudy 27 -2.8 17 -8.6 65 65 N 12 19 30.39 1029 10 16.0934 0 0
2:15 pm 14:15 Cloudy 27 -2.6 17 -8.5 64 64 N 14 22 30.39 1029 10 16.0934 0 0
2:35 pm 14:35 Cloudy 27 -2.6 17 -8.1 66 66 N 14 22 30.39 1029 10 16.0934 0 0
2:55 pm 14:55 Cloudy 27 -2.6 17 -8.5 64 64 N 16 26 30.42 1030 10 16.0934 0 0
3:15 pm 15:15 Cloudy 27 -2.7 16 -9 62 62 NNE 13 20 30.42 1030 10 16.0934 0 0
3:35 pm 15:35 Cloudy 27 -2.8 14 -9.8 59 59 NNE 16 26 30.42 1030 10 16.0934 0 0
3:55 pm 15:55 Cloudy 27 -3 15 -9.5 61 61 NNE 13 20 30.42 1030 10 16.0934 0 0
4:15 pm 16:15 Cloudy 26 -3.2 15 -9.6 62 62 NNE 14 22 30.42 1030 10 16.0934 0 0
4:35 pm 16:35 Cloudy 26 -3.5 15 -9.5 64 64 N 14 22 30.45 1031 10 16.0934 0 0
4:55 pm 16:55 Cloudy 25 -3.7 15 -9.3 65 65 NNE 14 22 30.48 1032 10 16.0934 0 0
5:15 pm 17:15 Cloudy 25 -4 15 -9.4 66 66 N 16 26 30.48 1032 10 16.0934 0 0
5:35 pm 17:35 Cloudy 25 -4 15 -9.4 66 66 NNE 13 20 30.5 1033 10 16.0934 0 0
5:55 pm 17:55 Cloudy 24 -4.2 15 -9.3 68 68 NNE 9 15 30.5 1033 10 16.0934 0 0
6:15 pm 18:15 Cloudy 24 -4.3 15 -9.3 68 68 NNE 16 26 30.5 1033 10 16.0934 0 0
6:35 pm 18:35 Cloudy 24 -4.5 14 -10.1 65 65 NNE 14 22 30.5 1033 10 16.0934 0 0
6:55 pm 18:55 Cloudy 24 -4.5 13 -10.3 64 64 NNE 13 20 30.53 1034 10 16.0934 0 0
7:15 pm 19:15 Partly Cloudy 24 -4.6 13 -10.4 64 64 NNE 12 19 30.53 1034 10 16.0934 0 0
7:35 pm 19:35 Clear 24 -4.7 13 -10.5 64 64 NNE 12 19 30.53 1034 10 16.0934 0 0
7:55 pm 19:55 Clear 23 -4.8 13 -10.3 66 66 N 12 19 30.53 1034 10 16.0934 0 0
8:15 pm 20:15 Clear 23 -4.8 13 -10.4 65 65 N 13 20 30.56 1035 10 16.0934 0 0
8:35 pm 20:35 Clear 23 -5 14 -10 68 68 NNE 6 9 30.56 1035 10 16.0934 0 0
8:55 pm 20:55 Partly Cloudy 23 -5 14 -9.8 69 69 NNE 3 6 30.59 1036 10 16.0934 0 0
9:15 pm 21:15 Mostly Cloudy 22 -5.3 14 -10 70 70 NNE 3 6 30.59 1036 10 16.0934 0 0
9:35 pm 21:35 Mostly Cloudy 22 -5.5 14 -10.1 70 70 NNE 3 6 30.59 1036 10 16.0934 0 0
9:55 pm 21:55 Partly Cloudy 20 -6.5 13 -10.5 74 74 Calm 30.62 1037 10 16.0934 0 0
10:15 pm 22:15 Mostly Cloudy 21 -6.3 13 -10.4 73 73 Calm 30.62 1037 10 16.0934 0 0
10:35 pm 22:35 Partly Cloudy 20 -6.5 13 -10.7 72 72 Calm 30.62 1037 10 16.0934 0 0
10:55 pm 22:55 Mostly Cloudy 19 -7.1 13 -10.8 75 75 Calm 30.62 1037 10 16.0934 0 0
11:15 pm 23:15 Partly Cloudy 20 -6.9 14 -9.9 79 79 Calm 30.62 1037 10 16.0934 0 0
11:35 pm 23:35 Clear 21 -6.2 15 -9.7 77 77 WNW 3 6 30.62 1037 10 16.0934 0 0
11:55 pm 23:55 Clear 21 -6 14 -9.9 74 74 Calm 30.62 1037 10 16.0934 0 0

Powered by AerisWeather